TimeCDT,TemperatureF,Dew PointF,Humidity,Sea Level PressureIn,VisibilityMPH,Wind Direction,Wind SpeedMPH,Gust SpeedMPH,PrecipitationIn,Events,Conditions,WindDirDegrees,DateUTC
12:53 AM,66.0,61.0,84,29.52,9.0,South,27.6,42.6,N/A,,Overcast,170,2013-04-09 05:53:00
1:53 AM,66.9,62.1,84,29.52,8.0,South,23.0,33.4,N/A,,Overcast,170,2013-04-09 06:53:00
2:53 AM,66.0,61.0,84,29.51,8.0,SSE,21.9,31.1,N/A,,Overcast,160,2013-04-09 07:53:00
3:45 AM,66.2,60.8,83,29.57,9.0,South,23.0,29.9,N/A,,Overcast,170,2013-04-09 08:45:00
3:53 AM,66.0,61.0,84,29.50,9.0,South,23.0,28.8,N/A,,Overcast,170,2013-04-09 08:53:00
4:53 AM,64.9,60.1,84,29.51,10.0,South,21.9,32.2,N/A,,Overcast,170,2013-04-09 09:53:00
5:53 AM,64.0,60.1,87,29.52,10.0,SSE,23.0,28.8,N/A,,Overcast,160,2013-04-09 10:53:00
6:53 AM,64.0,60.1,87,29.54,10.0,South,20.7,-,N/A,,Overcast,170,2013-04-09 11:53:00
7:48 AM,64.4,60.8,88,29.61,8.0,SSE,19.6,-,N/A,,Overcast,160,2013-04-09 12:48:00
7:53 AM,64.0,60.1,87,29.56,8.0,SSE,18.4,-,N/A,,Overcast,160,2013-04-09 12:53:00
8:53 AM,64.9,60.1,84,29.57,9.0,SSE,19.6,-,N/A,,Overcast,150,2013-04-09 13:53:00
9:33 AM,66.2,60.8,83,29.62,9.0,SE,18.4,-,N/A,,Overcast,140,2013-04-09 14:33:00
9:53 AM,66.0,61.0,84,29.56,9.0,SE,19.6,26.5,N/A,,Overcast,140,2013-04-09 14:53:00
10:53 AM,66.9,61.0,81,29.59,9.0,South,16.1,25.3,N/A,,Overcast,170,2013-04-09 15:53:00
11:00 AM,68.0,60.8,78,29.65,9.0,SSE,13.8,23.0,N/A,,Overcast,160,2013-04-09 16:00:00
11:22 AM,68.0,60.8,78,29.66,9.0,SSE,17.3,-,N/A,,Overcast,160,2013-04-09 16:22:00
11:53 AM,71.1,62.1,73,29.59,9.0,SSE,24.2,28.8,N/A,,Scattered Clouds,160,2013-04-09 16:53:00
12:49 PM,55.4,46.4,72,29.68,10.0,NW,21.9,28.8,N/A,,Mostly Cloudy,320,2013-04-09 17:49:00
12:53 PM,54.0,46.0,75,29.64,10.0,NW,24.2,29.9,N/A,,Overcast,320,2013-04-09 17:53:00
1:01 PM,53.6,44.6,72,29.68,10.0,NW,20.7,29.9,N/A,,Overcast,320,2013-04-09 18:01:00
1:37 PM,53.6,44.6,72,29.69,10.0,NNW,19.6,31.1,0.00,Rain,Light Rain,340,2013-04-09 18:37:00
1:53 PM,57.0,44.1,62,29.66,10.0,NNW,28.8,34.5,0.00,,Mostly Cloudy,330,2013-04-09 18:53:00
2:53 PM,48.0,37.0,66,29.69,10.0,NNW,31.1,38.0,N/A,,Partly Cloudy,330,2013-04-09 19:53:00
3:33 PM,46.4,35.6,66,29.71,10.0,NNW,31.1,40.3,N/A,,Mostly Cloudy,330,2013-04-09 20:33:00
3:41 PM,44.6,33.8,66,29.71,10.0,NNW,33.4,41.4,N/A,,Scattered Clouds,330,2013-04-09 20:41:00
3:48 PM,44.6,35.6,71,29.72,10.0,NNW,33.4,41.4,N/A,,Mostly Cloudy,340,2013-04-09 20:48:00
3:53 PM,45.0,34.0,65,29.70,10.0,NNW,32.2,41.4,N/A,,Mostly Cloudy,340,2013-04-09 20:53:00
4:53 PM,41.0,32.0,70,29.71,10.0,NNW,26.5,41.4,N/A,,Overcast,340,2013-04-09 21:53:00
5:53 PM,37.0,28.0,70,29.75,10.0,NNW,35.7,46.0,N/A,,Overcast,330,2013-04-09 22:53:00
6:53 PM,32.0,27.0,82,29.81,10.0,NNW,33.4,47.2,N/A,,Overcast,340,2013-04-09 23:53:00
8:09 PM,32.0,28.4,87,29.87,6.0,NNW,32.2,42.6,0.00,Rain,Light Freezing Rain,330,2013-04-10 01:09:00
8:21 PM,32.0,28.4,87,29.85,4.0,North,36.8,46.0,0.00,Snow,Light Snow,350,2013-04-10 01:21:00
8:36 PM,32.0,28.4,87,29.88,5.0,North,27.6,38.0,0.00,,Overcast,350,2013-04-10 01:36:00
8:45 PM,32.0,28.4,87,29.86,4.0,NNW,36.8,47.2,0.00,Snow,Light Snow,340,2013-04-10 01:45:00
8:53 PM,32.0,30.0,92,29.85,4.0,NNW,38.0,49.5,0.00,Snow,Light Snow,340,2013-04-10 01:53:00
9:22 PM,33.8,30.2,87,29.87,7.0,NNW,27.6,38.0,0.00,Rain,Light Freezing Rain,340,2013-04-10 02:22:00
9:27 PM,33.8,30.2,87,29.86,4.0,North,29.9,39.1,0.02,Rain-Thunderstorm,Light Freezing Rain,350,2013-04-10 02:27:00
9:38 PM,33.8,30.2,87,29.88,4.0,NNW,25.3,38.0,0.07,Rain-Thunderstorm,Heavy Rain,340,2013-04-10 02:38:00
9:48 PM,33.8,32.0,93,29.89,3.0,North,28.8,38.0,0.15,Rain-Thunderstorm,Light Freezing Rain,350,2013-04-10 02:48:00
9:53 PM,33.1,30.9,92,29.86,4.0,North,28.8,39.1,0.16,Rain-Thunderstorm,Light Freezing Rain,350,2013-04-10 02:53:00
10:08 PM,33.8,30.2,87,29.91,-9999.0,NNW,28.8,40.3,0.01,Rain-Thunderstorm,Light Rain,330,2013-04-10 03:08:00
10:16 PM,32.0,28.4,87,29.87,7.0,North,34.5,40.3,0.03,Rain-Thunderstorm,Light Freezing Rain,350,2013-04-10 03:16:00
10:29 PM,30.2,28.4,93,29.88,10.0,North,28.8,41.4,0.03,Rain,Light Freezing Rain,350,2013-04-10 03:29:00
10:42 PM,30.2,28.4,93,29.94,10.0,NNW,33.4,43.7,0.03,Rain-Thunderstorm,Light Freezing Rain,330,2013-04-10 03:42:00
10:53 PM,30.9,28.0,89,29.96,5.0,NNW,29.9,39.1,0.08,Rain-Thunderstorm,Light Freezing Rain,330,2013-04-10 03:53:00
11:01 PM,30.2,28.4,93,29.91,2.5,North,31.1,43.7,0.12,Rain-Thunderstorm,Light Freezing Rain,350,2013-04-10 04:01:00
11:12 PM,30.2,28.4,93,29.96,6.0,NNW,24.2,39.1,0.14,Rain-Thunderstorm,Light Freezing Rain,340,2013-04-10 04:12:00
11:53 PM,30.0,28.0,92,29.94,5.0,NNW,34.5,43.7,0.19,Rain,Light Freezing Rain,340,2013-04-10 04:53:00